Weather History for Two Harbors, MN

Change the Weather History Date:

Monday, February 3, 2014

  Actual Average Record
Temperature  
Mean Temperature 3 °F -  
Max Temperature 17 °F 22 °F 48 °F (1991)
Min Temperature -11 °F 4 °F -26 °F (1970)
Degree Days  
Heating Degree Days 62    
Moisture  
Dew Point -6 °F    
Average Humidity 68    
Maximum Humidity 85    
Minimum Humidity 53    
Precipitation  
Precipitation 0.00 in - - ()
Sea Level Pressure  
Sea Level Pressure 30.13 in    
Wind  
Wind Speed 4 mph (West)    
Max Wind Speed 8 mph    
Max Gust Speed 16 mph    
Visibility 10 miles    
Events      
Averages and records for this station are not official NWS values.
T = Trace of Precipitation, MM = Missing Value Source: NWS Daily Summary

Daily Weather History Graph

Daily Weather History Graph

Search for Another Location

Airport:

Trip Planner

Search our weather history database for the weather conditions in past years. The results will help you decide how hot, cold, wet, or windy it might be!

Date:

Astronomy

Feb. 03, 2014 Rise Set
Actual Time 7:29 AM CST 5:12 PM CST
Civil Twilight 6:56 AM CST 5:45 PM CST
Nautical Twilight 6:20 AM CST 6:21 PM CST
Astronomical Twilight 5:45 AM CST 6:57 PM CST
Moon 9:11 AM CST (2/3) 10:26 PM CST (2/3)
Length of Visible Light 10h 48m
Length of Day
9h 43m
Waxing Crescent, 20% of the Moon is Illuminated
Feb 3
Waxing Crescent
Feb 6
First Quarter
Feb 14
Full
Feb 22
Last Quarter
Mar 1
New

Hourly Weather History & Observations

Time (CST) Temp. Windchill Dew Point Humidity Pressure Visibility Wind Dir Wind Speed Gust Speed Precip Events Conditions
12:13 AM -2.2 °F -15.6 °F -9.4 °F 71% 30.09 in 10.0 mi West 6.9 mph - N/A   Clear
12:34 AM -2.2 °F -12.5 °F -9.4 °F 71% 30.09 in 10.0 mi West 4.6 mph - N/A   Clear
12:53 AM -4.0 °F -16.3 °F -9.4 °F 78% 30.09 in 10.0 mi West 5.8 mph - N/A   Clear
1:13 AM -5.8 °F -16.7 °F -11.2 °F 77% 30.09 in 10.0 mi West 4.6 mph - N/A   Clear
1:34 AM -5.8 °F -18.4 °F -11.2 °F 77% 30.10 in 10.0 mi West 5.8 mph - N/A   Clear
1:53 AM -5.8 °F -18.4 °F -11.2 °F 77% 30.09 in 10.0 mi West 5.8 mph - N/A   Clear
2:13 AM -7.6 °F -22.1 °F -13.0 °F 77% 30.10 in 10.0 mi West 6.9 mph - N/A   Clear
2:34 AM -7.6 °F -16.5 °F -13.0 °F 77% 30.09 in 10.0 mi WSW 3.5 mph - N/A   Clear
2:53 AM -9.4 °F - -16.6 °F 71% 30.09 in 10.0 mi Calm Calm - N/A   Clear
3:13 AM -7.6 °F -18.8 °F -14.8 °F 71% 30.10 in 10.0 mi WSW 4.6 mph - N/A   Clear
3:34 AM -9.4 °F -20.9 °F -16.6 °F 71% 30.10 in 10.0 mi West 4.6 mph - N/A   Scattered Clouds
3:53 AM -9.4 °F -24.3 °F -14.8 °F 77% 30.09 in 10.0 mi West 6.9 mph - N/A   Mostly Cloudy
4:13 AM -7.6 °F -18.8 °F -14.8 °F 71% 30.09 in 10.0 mi West 4.6 mph - N/A   Scattered Clouds
4:34 AM -5.8 °F -16.7 °F -11.2 °F 77% 30.09 in 10.0 mi WSW 4.6 mph - N/A   Clear
4:53 AM -7.6 °F -20.6 °F -14.8 °F 71% 30.09 in 10.0 mi West 5.8 mph - N/A   Clear
5:13 AM -9.4 °F - -14.8 °F 77% 30.09 in 10.0 mi Calm Calm - N/A   Clear
5:34 AM -11.2 °F -20.6 °F -16.6 °F 77% 30.09 in 10.0 mi WSW 3.5 mph - N/A   Clear
5:53 AM -7.6 °F - -14.8 °F 71% 30.08 in 10.0 mi Calm Calm - N/A   Clear
6:14 AM -7.6 °F - -13.0 °F 77% 30.08 in 10.0 mi Calm Calm - N/A   Clear
6:33 AM -9.4 °F -22.7 °F -16.6 °F 71% 30.08 in 10.0 mi SSW 5.8 mph - N/A   Clear
6:53 AM -5.8 °F -14.5 °F -11.2 °F 77% 30.08 in 10.0 mi West 3.5 mph - N/A   Clear
7:14 AM -2.2 °F - -7.6 °F 78% 30.07 in 10.0 mi Calm Calm - N/A   Clear
7:33 AM -7.6 °F -18.8 °F -13.0 °F 77% 30.08 in 10.0 mi SW 4.6 mph - N/A   Clear
7:53 AM -5.8 °F - -11.2 °F 77% 30.08 in 10.0 mi Calm Calm - N/A   Clear
8:14 AM -5.8 °F -14.5 °F -11.2 °F 77% 30.10 in 10.0 mi SSE 3.5 mph - N/A   Clear
8:33 AM -5.8 °F - -11.2 °F 77% 30.10 in 7.0 mi Calm Calm - N/A   Clear
8:53 AM -2.2 °F - -7.6 °F 78% 30.09 in 10.0 mi Calm Calm - N/A   Clear
9:14 AM -0.4 °F -8.3 °F -5.8 °F 78% 30.10 in 10.0 mi South 3.5 mph - N/A   Clear
9:33 AM 1.4 °F - -2.2 °F 85% 30.09 in 10.0 mi Calm Calm - N/A   Clear
9:53 AM 6.8 °F -2.0 °F -0.4 °F 72% 30.09 in 10.0 mi NW 4.6 mph - N/A   Clear
10:14 AM 6.8 °F -0.1 °F -0.4 °F 72% 30.10 in 10.0 mi West 3.5 mph - N/A   Clear
10:33 AM 8.6 °F 0.1 °F -0.4 °F 67% 30.11 in 10.0 mi West 4.6 mph - N/A   Clear
10:53 AM 8.6 °F -1.3 °F -0.4 °F 67% 30.11 in 10.0 mi West 5.8 mph - N/A   Clear
11:14 AM 10.4 °F - -0.4 °F 62% 30.11 in 10.0 mi Calm Calm - N/A   Clear
11:33 AM 12.2 °F 0.7 °F 1.4 °F 62% 30.10 in 10.0 mi WSW 8.1 mph - N/A   Clear
11:53 AM 12.2 °F 0.7 °F 1.4 °F 62% 30.10 in 10.0 mi West 8.1 mph - N/A   Clear
12:13 PM 15.8 °F 8.6 °F 3.2 °F 58% 30.09 in 10.0 mi WNW 4.6 mph - N/A   Clear
12:33 PM 15.8 °F 7.2 °F 3.2 °F 58% 30.09 in 10.0 mi WNW 5.8 mph - N/A   Clear
12:53 PM 15.8 °F 8.6 °F 3.2 °F 58% 30.09 in 10.0 mi West 4.6 mph - N/A   Scattered Clouds
1:13 PM 17.6 °F 9.3 °F 3.2 °F 53% 30.09 in 10.0 mi NW 5.8 mph - N/A   Clear
1:33 PM 17.6 °F 12.3 °F 3.2 °F 53% 30.08 in 10.0 mi NW 3.5 mph - N/A   Scattered Clouds
1:53 PM 17.6 °F 9.3 °F 3.2 °F 53% 30.09 in 10.0 mi West 5.8 mph - N/A   Scattered Clouds
2:14 PM 15.8 °F 6.1 °F 1.4 °F 53% 30.10 in 10.0 mi West 6.9 mph - N/A   Scattered Clouds
2:33 PM 15.8 °F 6.1 °F 1.4 °F 53% 30.11 in 10.0 mi West 6.9 mph - N/A   Mostly Cloudy
2:53 PM 15.8 °F 5.1 °F 1.4 °F 53% 30.12 in 10.0 mi WNW 8.1 mph 16.1 mph N/A   Overcast
3:13 PM 14.0 °F 5.1 °F 1.4 °F 57% 30.12 in 10.0 mi WNW 5.8 mph - N/A   Mostly Cloudy
3:33 PM 14.0 °F 3.9 °F 1.4 °F 57% 30.13 in 10.0 mi WNW 6.9 mph - N/A   Mostly Cloudy
3:53 PM 14.0 °F 5.1 °F 1.4 °F 57% 30.14 in 10.0 mi WNW 5.8 mph - N/A   Scattered Clouds
4:13 PM 14.0 °F 6.5 °F 1.4 °F 57% 30.14 in 10.0 mi WNW 4.6 mph - N/A   Scattered Clouds
4:33 PM 12.2 °F 0.7 °F -0.4 °F 57% 30.15 in 10.0 mi West 8.1 mph - N/A   Clear
4:53 PM 12.2 °F 2.9 °F -0.4 °F 57% 30.15 in 10.0 mi West 5.8 mph - N/A   Clear
5:13 PM 10.4 °F - -2.2 °F 57% 30.16 in 10.0 mi Calm Calm - N/A   Clear
5:33 PM 8.6 °F - -2.2 °F 62% 30.17 in 10.0 mi Calm Calm - N/A   Clear
5:53 PM 8.6 °F - -2.2 °F 62% 30.18 in 10.0 mi Calm Calm - N/A   Clear
6:13 PM 5.0 °F - -4.0 °F 66% 30.19 in 10.0 mi Calm Calm - N/A   Clear
6:33 PM 5.0 °F - -4.0 °F 66% 30.19 in 10.0 mi Calm Calm - N/A   Clear
6:53 PM 1.4 °F -8.3 °F -5.8 °F 72% 30.20 in 10.0 mi West 4.6 mph - N/A   Clear
7:13 PM 1.4 °F -6.2 °F -7.6 °F 66% 30.20 in 10.0 mi WNW 3.5 mph - N/A   Clear
7:33 PM 1.4 °F -6.2 °F -7.6 °F 66% 30.21 in 10.0 mi WNW 3.5 mph - N/A   Clear
7:53 PM 1.4 °F -8.3 °F -7.6 °F 66% 30.21 in 10.0 mi WNW 4.6 mph - N/A   Clear
8:13 PM 1.4 °F -6.2 °F -5.8 °F 72% 30.21 in 10.0 mi NW 3.5 mph - N/A   Clear
8:33 PM 3.2 °F -4.2 °F -5.8 °F 66% 30.21 in 10.0 mi WNW 3.5 mph - N/A   Clear
8:54 PM 1.4 °F -8.3 °F -5.8 °F 72% 30.21 in 10.0 mi NW 4.6 mph - N/A   Clear
9:13 PM 1.4 °F -6.2 °F -5.8 °F 72% 30.21 in 10.0 mi WNW 3.5 mph - N/A   Clear
9:33 PM 1.4 °F -8.3 °F -7.6 °F 66% 30.21 in 10.0 mi NW 4.6 mph - N/A   Clear
9:54 PM 1.4 °F -8.3 °F -5.8 °F 72% 30.22 in 10.0 mi NW 4.6 mph - N/A   Clear
10:13 PM 1.4 °F -8.3 °F -5.8 °F 72% 30.23 in 10.0 mi NW 4.6 mph - N/A   Clear
10:33 PM 1.4 °F -6.2 °F -5.8 °F 72% 30.23 in 10.0 mi NW 3.5 mph - N/A   Clear
10:54 PM 1.4 °F -6.2 °F -5.8 °F 72% 30.24 in 10.0 mi NW 3.5 mph - N/A   Clear
11:13 PM 1.4 °F - -5.8 °F 72% 30.24 in 10.0 mi Calm Calm - N/A   Clear
11:33 PM 1.4 °F -8.3 °F -5.8 °F 72% 30.25 in 10.0 mi NW 4.6 mph - N/A   Clear
11:54 PM 1.4 °F -9.9 °F -7.6 °F 66% 30.26 in 10.0 mi NW 5.8 mph - N/A   Clear